Powrót do katalogu

CZ-6A DEB

AktywnyPO
NORAD 56246·DEBRIS·🇨🇳 China

Wystrzelony Nov 11, 2022 z Taiyuan Satellite Launch Center

Loading…

Następne Przeloty (najbliższe 24 godziny)

TLE

ŚwieżeSource: Space-Track

Epoka: Sep 14, 2026, 15:08 UTC

1 56246U 22151ABN 26257.63094365  .00014670  00000-0  11559-2 0  9993
2 56246  98.7206  33.7565 0103929 187.0228 172.9541 14.96677228187993

Śledź CZ-6A DEB w czasie rzeczywistym z AllMySat

Download on the App Store